FENGYUN 1C DEB, 30815

Orbit data source: Space-Track

FENGYUN 1C DEB, 30815 is space debris in SSO originally from a launch on Mon, 10 May 1999 UTC launched from the Taiyaun Space Center, China (TSC). Fengyun 1C debris stems from the Chinese weather satellite Fengyun-1C, which was intentionally destroyed by a Chinese anti-satellite missile in 2007. This event dramatically increased the amount of space debris, with thousands of trackable fragments posing hazards to satellites and human spaceflight. The Fengyun 1C debris cloud has become a focal point in discussions about space sustainability and the need for international regulations to prevent the creation of new debris.

Loading next visibility...
Identifier
30815, 1999-025AUZ
Orbit
SSO
Country
Flag of CNCN / PRC
Related business
Manufacturer
Unknown
Mission
Spacecraft
Bus & Motor
Unknown
Mass
Unknown
Launch date (UTC)
1999-05-10 (27 years ago)
Launch vehicle
Unknown
Launch site
Taiyaun Space Center, China (TSC)
Object type
Payload
Rocket body
Debris
Shape & HBR
Unknown shape, 0.1 m
Radar Cross Section
Small (<0.1 m²)

Expand to show TLE details & history
Last TLE update: 13 hours ago

TLE from 13 hours ago
0 FENGYUN 1C DEB
1 30815U 99025AUZ 26124.06961498  .00025069  00000-0  31578-2 0  9998
2 30815  99.3029 306.7990 0002223 154.7950 329.9500 14.81987615998829
Epoch: 2026-05-04T01:40Z
TLE epoch observation values (Epoch: 2026-05-04T01:40:14.734Z)
Latitude
54.2993°
Longitude
-107.12238°
Altitude
630.629 km
Speed
7.549 km/s
True Right ascension
09h 19m 36s
True Declination
54° 07' 59"
Sunlit
Object was in daylight at epoch
Visualization orbit readout
Latitude
Unknown
Longitude
Unknown
Altitude
Unknown
Speed
Unknown
Apparent Right ascension
Unknown
Apparent Declination
Unknown
Sunlit
N/A
Visualization observer readout
Local Sidereal Time
22:01:00
Azimuth
Unknown
Elevation
Unknown
Doppler factor
Unknown
Orbital elements
Apogee altitude
621.719 km
Perigee altitude
618.608 km
Semi-major axis
6,998.301 km
Eccentricity
0.00022
Inclination
99.3029°
RAAN
306.799°
Arg. of periapsis
154.795°
True anomaly
329.93724°
Mean anomaly
329.95°
Eccentric anomaly
329.94362°
Mean motion
3.70727 °/min
Orbital period
97.11 mins
BSTAR
0.0031578
Loading maneuver chart data...
Computing Atmospheric mass density...

Documentation

Showing up to 5 results
|